FW0837 Weather Reports


Display with metric or nautical units.
time (UTC)temp
F
wind
direction
speed
MPH
gust
MPH
rain 1hr
in
rain 24hr
in
rain mn
in
humidity
%
barometer
mb
20260502180107 56 189 2.0 12.0 0.00 0.14 0.14 66 1010.9
20260502164047 54 184 3.0 6.0 0.00 0.14 0.14 76 1011.8
20260502163549 53 172 1.0 8.0 0.00 0.14 0.14 78 1011.9
20260502163047 53 116 0.0 8.0 0.00 0.14 0.14 76 1011.8
20260502162547 53 116 3.0 8.0 0.00 0.14 0.14 75 1012.0
20260502162047 53 140 3.0 10.0 0.00 0.14 0.14 74 1012.1
20260502161546 53 223 5.0 10.0 0.00 0.14 0.14 73 1011.8
20260502161046 53 169 2.0 8.0 0.00 0.14 0.14 74 1011.9
20260502160546 54 262 3.0 8.0 0.00 0.14 0.14 74 1011.9
20260502152040 50 87 0.0 2.0 0.00 0.14 0.14 83 1012.0
20260502151540 50 87 0.0 3.0 0.00 0.14 0.14 84 1012.0
20260502151040 50 87 1.0 3.0 0.00 0.14 0.14 85 1012.0
20260502150539 50 87 0.0 2.0 0.00 0.14 0.14 87 1012.0
20260502130524 44 241 0.0 2.0 0.07 0.13 0.13 88 1012.6
20260502123524 44 241 0.0 2.0 0.05 0.06 0.06 87 1012.9
20260502123023 44 241 0.0 0.0 0.05 0.06 0.06 87 1012.7
20260502122524 44 241 0.0 2.0 0.05 0.06 0.06 87 1012.7
20260502122025 44 241 0.0 2.0 0.05 0.06 0.06 87 1012.7
20260502121536 44 241 0.0 1.0 0.05 0.06 0.06 86 1012.7
20260502121022 43 241 0.0 3.0 0.05 0.06 0.06 86 1012.7
20260502120523 43 241 0.0 3.0 0.05 0.06 0.06 85 1013.0
20260502115520 44 244 1.0 3.0 0.03 0.04 0.04 83 1013.2
20260502115019 44 276 0.0 6.0 0.02 0.03 0.03 82 1013.1
20260502114518 45 275 0.0 6.0 0.01 0.02 0.02 81 1012.9
20260502114017 45 264 2.0 4.0 0.01 0.02 0.02 80 1012.7
20260502113517 45 354 1.0 3.0 0.00 0.01 0.01 79 1012.1
20260502113016 45 354 0.0 2.0 0.01 0.01 0.01 79 1011.9
20260502112516 45 354 0.0 2.0 0.01 0.01 0.01 79 1011.8
20260502112017 45 354 0.0 1.0 0.01 0.01 0.01 80 1011.9
20260502111515 45 354 0.0 2.0 0.01 0.01 0.01 80 1011.9
20260502111015 45 359 0.0 2.0 0.01 0.01 0.01 81 1011.9
20260502110514 44 354 0.0 5.0 0.01 0.01 0.01 81 1011.8
20260502110013 44 354 1.0 5.0 0.01 0.01 0.01 81 1011.8
20260502105513 44 343 0.0 5.0 0.01 0.01 0.01 81 1011.8
20260502105015 44 343 1.0 5.0 0.01 0.01 0.01 82 1011.9
20260502104510 44 4 1.0 3.0 0.01 0.01 0.01 82 1011.8
20260502104008 44 41 0.0 3.0 0.01 0.01 0.01 82 1011.8
20260502103507 44 45 0.0 0.0 0.01 0.01 0.01 81 1011.8
20260502103007 44 45 0.0 0.0 0.00 0.00 0.00 80 1011.8
20260502102507 45 45 0.0 1.0 0.00 0.00 0.00 78 1011.7
20260502102006 45 45 0.0 1.0 0.00 0.00 0.00 76 1011.8
20260502101508 45 44 0.0 1.0 0.00 0.00 0.00 75 1011.8
20260502101003 45 45 0.0 2.0 0.00 0.00 0.00 73 1011.8
20260502100503 45 45 0.0 2.0 0.00 0.00 0.00 72 1011.9
20260502091502 45 349 0.0 3.0 0.00 0.00 0.00 72 1011.6
20260502091001 45 347 1.0 4.0 0.00 0.00 0.00 72 1011.6
20260502090502 45 247 3.0 4.0 0.00 0.00 0.00 71 1011.8
20260502071053 46 289 0.0 0.0 0.00 0.00 0.00 73 1011.8
20260502070553 46 289 0.0 1.0 0.00 0.00 0.00 73 1011.7
20260502070053 46 289 0.0 1.0 0.00 0.00 0.00 73 1011.7
20260502065553 46 289 0.0 2.0 0.00 0.00 0.00 74 1011.7
20260502065052 45 289 0.0 4.0 0.00 0.00 0.00 74 1011.5
20260502064553 45 289 0.0 3.0 0.00 0.00 0.00 74 1011.6
20260502064055 45 289 0.0 2.0 0.00 0.00 0.00 74 1011.6
20260502063552 45 289 0.0 0.0 0.00 0.00 0.00 74 1011.7
20260502063051 45 289 0.0 0.0 0.00 0.00 0.00 73 1011.7
20260502062551 45 289 0.0 0.0 0.00 0.00 0.00 72 1011.7
20260502062051 45 288 0.0 0.0 0.00 0.00 0.00 73 1011.8
20260502061651 44 289 0.0 0.0 0.00 0.00 0.00 72 1011.7
20260502061049 44 289 0.0 0.0 0.00 0.00 0.00 73 1011.8
20260502060549 44 289 0.0 1.0 0.00 0.00 0.00 72 1011.7
20260502060049 44 289 0.0 2.0 0.00 0.00 0.00 72 1011.8
20260502055551 44 289 0.0 2.0 0.00 0.00 0.00 71 1011.8
20260502055048 44 289 0.0 2.0 0.00 0.00 0.00 70 1011.6
20260502054546 45 289 0.0 2.0 0.00 0.00 0.00 69 1011.8
20260502054045 45 289 0.0 0.0 0.00 0.00 0.00 69 1011.9
20260502053544 45 289 0.0 0.0 0.00 0.00 0.00 68 1011.9
20260502053044 45 289 0.0 0.0 0.00 0.00 0.00 68 1011.9
20260502052544 45 289 0.0 0.0 0.00 0.00 0.00 69 1011.9
20260502052045 45 289 0.0 0.0 0.00 0.00 0.00 68 1012.0
20260502051542 46 289 0.0 2.0 0.00 0.00 0.00 69 1011.9
20260502051040 46 289 0.0 2.0 0.00 0.00 0.00 67 1011.9
20260502050541 46 289 0.0 1.0 0.00 0.00 0.00 66 1012.1
20260502050040 46 289 0.0 1.0 0.00 0.00 0.00 66 1012.2
20260502045540 46 289 0.0 1.0 0.00 0.00 0.00 66 1012.2
20260502045040 46 289 0.0 2.0 0.00 0.00 0.00 65 1012.2
20260502044540 46 289 0.0 2.0 0.00 0.00 0.00 66 1012.2
20260502044038 46 289 0.0 2.0 0.00 0.00 0.00 67 1012.2
20260502043538 46 289 0.0 2.0 0.00 0.00 0.00 67 1012.1
20260502043039 46 288 0.0 1.0 0.00 0.00 0.00 67 1012.2
20260502042539 46 289 0.0 1.0 0.00 0.00 0.00 67 1012.1
20260502042038 46 289 0.0 1.0 0.00 0.00 0.00 69 1012.1
20260502041537 46 289 0.0 2.0 0.00 0.00 0.00 70 1012.1
20260502041038 46 289 0.0 2.0 0.00 0.00 0.00 70 1012.1
20260502040534 46 289 0.0 0.0 0.00 0.00 0.00 69 1012.1
20260502040032 46 289 0.0 0.0 0.00 0.00 0.00 68 1012.1
20260502035532 46 289 0.0 0.0 0.00 0.00 0.00 69 1012.0
20260502035032 45 289 0.0 0.0 0.00 0.00 0.00 68 1012.0
20260502034535 45 289 0.0 0.0 0.00 0.00 0.00 67 1011.9
20260502034033 45 289 0.0 0.0 0.00 0.00 0.00 67 1011.9
20260502033533 45 289 0.0 0.0 0.00 0.00 0.00 68 1011.9
20260502033041 45 288 0.0 0.0 0.00 0.00 0.00 69 1011.9
20260502032532 45 289 0.0 0.0 0.00 0.00 0.00 70 1011.9
20260502032034 45 289 0.0 0.0 0.00 0.00 0.00 70 1011.8
20260502031531 45 289 0.0 0.0 0.00 0.00 0.00 70 1011.9
20260502031031 45 289 0.0 0.0 0.00 0.00 0.00 70 1011.9
20260502030531 44 289 0.0 0.0 0.00 0.00 0.00 69 1012.0
20260502030030 44 289 0.0 0.0 0.00 0.00 0.00 69 1011.9
20260502025531 44 289 0.0 0.0 0.00 0.01 0.00 70 1012.0
20260502025030 44 289 0.0 0.0 0.00 0.01 0.00 69 1011.9
20260502024530 44 289 0.0 0.0 0.00 0.01 0.00 67 1011.8
20260502024030 44 289 0.0 0.0 0.00 0.01 0.00 67 1011.9
20260502023530 44 289 0.0 0.0 0.00 0.01 0.00 67 1011.8
20260502023030 44 288 0.0 1.0 0.00 0.01 0.00 66 1011.8
20260502022528 45 289 0.0 1.0 0.00 0.01 0.00 66 1011.8
20260502022031 45 289 0.0 0.0 0.00 0.01 0.00 64 1011.7
20260502021528 45 289 0.0 0.0 0.00 0.01 0.00 64 1011.6
20260502021027 45 289 0.0 0.0 0.00 0.01 0.00 64 1011.6
20260502020527 46 289 0.0 0.0 0.00 0.01 0.00 64 1011.7
20260502020028 46 289 0.0 0.0 0.00 0.01 0.00 64 1011.7
20260502015531 46 289 0.0 0.0 0.00 0.01 0.00 64 1011.7
20260502015027 46 289 0.0 0.0 0.00 0.01 0.00 63 1011.7
20260502014529 47 289 0.0 0.0 0.00 0.01 0.00 61 1011.7
20260502014026 47 289 0.0 0.0 0.00 0.01 0.00 61 1011.7
20260502013527 47 289 0.0 0.0 0.00 0.01 0.00 61 1011.7
20260502013027 47 289 0.0 0.0 0.00 0.01 0.00 61 1011.6
20260502012529 48 289 0.0 0.0 0.00 0.01 0.00 61 1011.6
20260502012026 48 289 0.0 0.0 0.00 0.01 0.00 59 1011.6
20260502011526 48 289 0.0 0.0 0.00 0.01 0.00 58 1011.5
20260502011026 49 288 0.0 0.0 0.00 0.01 0.00 58 1011.6
20260502010524 49 289 0.0 0.0 0.00 0.01 0.00 58 1011.5
20260502010024 50 289 0.0 0.0 0.00 0.01 0.00 57 1011.5
20260502005523 50 289 0.0 0.0 0.00 0.01 0.00 58 1011.4
20260502005024 50 289 0.0 0.0 0.00 0.01 0.00 55 1011.4
20260502004539 51 289 0.0 0.0 0.00 0.01 0.00 51 1011.4
20260502004022 51 289 0.0 0.0 0.00 0.01 0.00 49 1011.2
20260502003521 52 289 0.0 0.0 0.00 0.01 0.00 47 1011.2
20260502003023 52 289 0.0 0.0 0.00 0.01 0.00 47 1011.2
20260502002522 53 289 0.0 0.0 0.00 0.01 0.00 49 1011.1
20260502002021 53 289 0.0 0.0 0.00 0.01 0.00 46 1011.0
20260502001520 54 289 0.0 0.0 0.00 0.01 0.00 44 1011.0
20260502001019 54 289 0.0 0.0 0.00 0.01 0.00 43 1010.9
20260502000519 55 289 0.0 0.0 0.00 0.01 0.00 44 1010.8
20260502000018 56 289 0.0 0.0 0.00 0.01 0.00 42 1010.7
20260501235516 56 289 0.0 0.0 0.00 0.01 0.00 41 1010.6
20260501235017 56 289 0.0 2.0 0.00 0.01 0.00 40 1010.5
20260501234525 56 289 0.0 3.0 0.00 0.01 0.00 40 1010.4
20260501234017 57 289 1.0 4.0 0.00 0.01 0.00 40 1010.2
20260501233517 57 289 2.0 7.0 0.00 0.01 0.00 39 1010.2
20260501233019 57 264 3.0 7.0 0.00 0.01 0.00 37 1010.2
20260501232516 58 308 2.0 6.0 0.00 0.01 0.00 37 1010.2
20260501232016 58 262 2.0 9.0 0.00 0.01 0.00 37 1010.1
20260501231521 58 287 2.0 9.0 0.00 0.01 0.00 37 1010.1
20260501231015 59 278 3.0 9.0 0.00 0.01 0.00 36 1010.1
20260501230515 59 264 2.0 7.0 0.00 0.01 0.00 36 1010.2
20260501230015 59 211 1.0 7.0 0.00 0.01 0.00 37 1010.0
20260501225514 59 256 1.0 5.0 0.00 0.01 0.00 35 1010.0
20260501225014 60 280 2.0 6.0 0.00 0.01 0.00 35 1009.9
20260501224514 60 301 1.0 8.0 0.00 0.01 0.00 37 1009.8
20260501224014 60 249 4.0 11.0 0.00 0.01 0.00 34 1009.8
20260501223514 60 245 5.0 10.0 0.00 0.01 0.00 35 1009.8
20260501223014 60 239 4.0 11.0 0.00 0.01 0.00 35 1009.9
20260501222514 60 240 4.0 12.0 0.00 0.01 0.00 34 1009.7
20260501222014 61 237 4.0 12.0 0.00 0.01 0.00 34 1009.7
20260501221513 61 256 6.0 10.0 0.00 0.01 0.00 33 1009.6
20260501221013 62 290 2.0 11.0 0.00 0.01 0.00 33 1009.7
20260501220513 62 311 1.0 12.0 0.00 0.01 0.00 36 1009.6
20260501220012 62 319 5.0 12.0 0.00 0.01 0.00 35 1009.6
20260501215512 63 291 2.0 11.0 0.00 0.01 0.00 34 1009.6
20260501215012 62 253 3.0 11.0 0.00 0.01 0.00 34 1009.6
20260501214512 62 293 5.0 11.0 0.00 0.01 0.00 33 1009.5
20260501214016 63 259 4.0 11.0 0.00 0.01 0.00 34 1009.5
20260501213511 63 354 4.0 11.0 0.00 0.01 0.00 36 1009.4
20260501213011 63 252 5.0 10.0 0.00 0.01 0.00 35 1009.3
20260501212511 63 241 2.0 9.0 0.00 0.01 0.00 34 1009.3
20260501212010 64 303 3.0 12.0 0.00 0.01 0.00 35 1009.2
20260501211509 63 260 6.0 12.0 0.00 0.01 0.00 33 1009.0
20260501211008 63 231 6.0 12.0 0.00 0.01 0.00 33 1009.0
20260501210508 62 316 5.0 16.0 0.00 0.01 0.00 34 1009.0
20260501210008 62 250 9.0 16.0 0.00 0.01 0.00 33 1009.0
20260501205507 64 262 6.0 11.0 0.00 0.01 0.00 34 1009.1
20260501205007 64 310 6.0 10.0 0.00 0.01 0.00 34 1008.9
20260501204507 63 248 2.0 10.0 0.00 0.01 0.00 37 1008.9
20260501204006 64 238 3.0 12.0 0.00 0.01 0.00 34 1008.9
20260501203506 64 298 5.0 16.0 0.00 0.01 0.00 35 1008.9
20260501203006 63 309 7.0 17.0 0.00 0.01 0.00 34 1008.9
20260501202506 63 267 7.0 21.0 0.00 0.01 0.00 34 1008.8
20260501202005 63 314 10.0 21.0 0.00 0.01 0.00 33 1008.8
20260501201503 63 251 8.0 14.0 0.00 0.01 0.00 36 1008.6
20260501201003 63 319 3.0 16.0 0.00 0.01 0.00 35 1008.7
20260501200503 63 289 6.0 16.0 0.00 0.01 0.00 34 1008.8
20260501200003 63 342 4.0 12.0 0.00 0.01 0.00 39 1008.8
20260501195503 62 297 4.0 12.0 0.00 0.01 0.00 37 1008.8
20260501195003 61 45 5.0 19.0 0.00 0.01 0.00 38 1008.7
20260501194505 61 309 8.0 19.0 0.00 0.01 0.00 37 1009.0
20260501194001 62 277 5.0 13.0 0.00 0.01 0.00 37 1009.1
20260501193501 61 280 6.0 16.0 0.00 0.01 0.00 41 1009.1
20260501193002 60 305 4.0 13.0 0.00 0.01 0.00 40 1009.1
20260501192501 60 247 5.0 14.0 0.00 0.01 0.00 41 1009.3
20260501192001 61 276 4.0 13.0 0.00 0.01 0.00 43 1009.1
20260501191600 61 285 4.0 13.0 0.00 0.01 0.00 42 1009.2
20260501191100 62 278 1.0 15.0 0.00 0.01 0.00 41 1009.2
20260501190559 63 266 8.0 25.0 0.00 0.01 0.00 37 1009.1
20260501190059 63 291 11.0 25.0 0.00 0.01 0.00 37 1009.0
20260501185559 63 228 5.0 15.0 0.00 0.03 0.00 42 1009.1
20260501185100 63 317 8.0 15.0 0.00 0.03 0.00 40 1009.1
20260501184602 63 348 4.0 15.0 0.00 0.03 0.00 41 1009.1
20260501184101 63 247 6.0 19.0 0.00 0.03 0.00 41 1009.1
20260501183559 62 308 7.0 19.0 0.00 0.03 0.00 38 1009.1
20260501183106 64 242 6.0 14.0 0.00 0.03 0.00 41 1009.2
20260501182556 63 284 6.0 14.0 0.00 0.03 0.00 43 1009.3
20260501182059 61 293 8.0 19.0 0.00 0.03 0.00 43 1009.2
20260501181556 62 314 6.0 19.0 0.00 0.03 0.00 45 1009.2
20260501181054 59 262 6.0 21.0 0.00 0.03 0.00 45 1009.2
20260501180554 60 271 8.0 21.0 0.00 0.03 0.00 42 1009.3